Location: Observatory
(49.4490°N, 2.6360°W)
Time: 14:10:21
(UTC+01:00)

CAS-4A - Pass Details

Date: 06 May 2025
Orbit: 371 x 397 km, 43.0° (Epoch: 15 May)

Event Time Altitude Azimuth Distance (km) Brightness Sun altitude
Exits shadow 03:57:46 22° 178° (S) 880 ? -14.0°
Drops below altitude 10° 03:59:56 10° 134° (SE) 1,381 ? -13.7°
Sets 04:02:15 0° 119° (ESE) 2,237 ? -13.5°
